When you browse on this site, cookies collect data to enhance your experience and personalize the content and advertising you see.
Visit our Privacy Policy to learn more. By continuing to use the site, you agree to this use of cookies and data.
  • In Netherlands
  • List of Countries
  • For 7 days
  • Water Temperature
  • Weather Map
  • Weather Widgets
  • user-avatar
    Login

    Hourly Weather Shulani

    Today, 14 October, Monday

    Time Temperature Precipitation Wind Pressure Humidity
    00:00 +8°C° 0 mm 2 mps 632 mmHg 40%
    01:00 +9°C° 0 mm 1 mps 631 mmHg 39%
    02:00 +9°C° 0 mm 1 mps 631 mmHg 38%
    03:00 +9°C° 0 mm 1 mps 631 mmHg 37%
    04:00 +8°C° 0 mm 1 mps 631 mmHg 37%
    05:00 +8°C° 0 mm 1 mps 631 mmHg 36%
    06:00 +8°C° 0 mm 1 mps 631 mmHg 36%
    07:00 +10°C° 0 mm 1 mps 632 mmHg 33%
    08:00 +12°C° 0 mm 0 mps 633 mmHg 31%
    09:00 +14°C° 0 mm 0 mps 634 mmHg 28%
    10:00 +16°C° 0 mm 1 mps 634 mmHg 28%
    11:00 +18°C° 0 mm 1 mps 635 mmHg 27%
    12:00 +19°C° 0 mm 2 mps 635 mmHg 27%
    13:00 +18°C° 0 mm 2 mps 635 mmHg 29%
    14:00 +18°C° 0 mm 2 mps 634 mmHg 31%
    15:00 +18°C° 0 mm 2 mps 634 mmHg 33%
    16:00 +16°C° 0 mm 1 mps 633 mmHg 40%
    17:00 +14°C° 0 mm 1 mps 633 mmHg 47%
    18:00 +12°C° 0 mm 1 mps 632 mmHg 55%
    19:00 +12°C° 0 mm 1 mps 632 mmHg 54%
    20:00 +11°C° 0 mm 1 mps 632 mmHg 53%
    21:00 +11°C° 0 mm 1 mps 632 mmHg 52%
    22:00 +11°C° 0 mm 1 mps 632 mmHg 49%
    23:00 +10°C° 0 mm 2 mps 631 mmHg 45%

    Tomorrow, 15 October, Tuesday

    Time Temperature Precipitation Wind Pressure Humidity
    00:00 +10°C° 0 mm 2 mps 631 mmHg 41%
    01:00 +9°C° 0 mm 2 mps 631 mmHg 39%
    02:00 +9°C° 0 mm 2 mps 631 mmHg 36%
    03:00 +9°C° 0 mm 2 mps 630 mmHg 34%
    04:00 +9°C° 0 mm 2 mps 630 mmHg 32%
    05:00 +9°C° 0 mm 2 mps 630 mmHg 31%
    06:00 +9°C° 0 mm 3 mps 629 mmHg 29%
    07:00 +12°C° 0 mm 2 mps 630 mmHg 28%
    08:00 +14°C° 0 mm 1 mps 631 mmHg 26%
    09:00 +18°C° 0 mm 1 mps 632 mmHg 25%
    10:00 +19°C° 0 mm 1 mps 632 mmHg 23%
    11:00 +20°C° 0 mm 1 mps 632 mmHg 22%
    12:00 +20°C° 0 mm 2 mps 632 mmHg 21%
    13:00 +21°C° 0 mm 1 mps 632 mmHg 22%
    14:00 +21°C° 0 mm 1 mps 632 mmHg 24%
    15:00 +21°C° 0 mm 1 mps 631 mmHg 25%
    16:00 +19°C° 0 mm 1 mps 630 mmHg 31%
    17:00 +15°C° 0 mm 1 mps 629 mmHg 37%
    18:00 +13°C° 0 mm 1 mps 629 mmHg 43%
    19:00 +13°C° 0 mm 1 mps 629 mmHg 43%
    20:00 +12°C° 0 mm 1 mps 629 mmHg 43%
    21:00 +12°C° 0 mm 1 mps 629 mmHg 43%
    22:00 +12°C° 0 mm 1 mps 628 mmHg 43%
    23:00 +12°C° 0 mm 1 mps 628 mmHg 42%

    Day after tomorrow, 16 October, Wednesday

    Time Temperature Precipitation Wind Pressure Humidity
    00:00 +11°C° 0 mm 1 mps 628 mmHg 42%
    01:00 +11°C° 0 mm 1 mps 628 mmHg 41%
    02:00 +11°C° 0 mm 1 mps 628 mmHg 40%
    03:00 +11°C° 0 mm 1 mps 628 mmHg 40%
    04:00 +10°C° 0 mm 1 mps 628 mmHg 39%
    05:00 +10°C° 0 mm 1 mps 627 mmHg 39%
    06:00 +10°C° 0 mm 1 mps 627 mmHg 38%
    07:00 +12°C° 0 mm 1 mps 628 mmHg 35%
    08:00 +14°C° 0 mm 1 mps 629 mmHg 32%
    09:00 +15°C° 0 mm 0 mps 630 mmHg 28%
    10:00 +18°C° 0 mm 1 mps 631 mmHg 28%
    11:00 +19°C° 0 mm 1 mps 631 mmHg 27%
    12:00 +19°C° 0 mm 2 mps 631 mmHg 26%
    13:00 +19°C° 0 mm 2 mps 631 mmHg 27%
    14:00 +18°C° 0 mm 2 mps 631 mmHg 29%
    15:00 +18°C° 0 mm 2 mps 630 mmHg 30%
    16:00 +16°C° 0 mm 1 mps 630 mmHg 37%
    17:00 +14°C° 0 mm 1 mps 629 mmHg 44%
    18:00 +11°C° 0 mm 0 mps 628 mmHg 52%
    19:00 +10°C° 0 mm 0 mps 628 mmHg 52%
    20:00 +11°C° 0 mm 1 mps 629 mmHg 53%
    21:00 +11°C° 0 mm 1 mps 629 mmHg 53%
    22:00 +11°C° 0 mm 1 mps 629 mmHg 52%
    23:00 +10°C° 0 mm 1 mps 629 mmHg 50%

    17 October, Thursday

    Time Temperature Precipitation Wind Pressure Humidity
    00:00 +10°C° 0 mm 1 mps 628 mmHg 49%
    01:00 +10°C° 0 mm 1 mps 628 mmHg 46%
    02:00 +10°C° 0 mm 1 mps 628 mmHg 44%
    03:00 +8°C° 0 mm 2 mps 628 mmHg 42%
    04:00 +8°C° 0 mm 2 mps 628 mmHg 40%
    05:00 +8°C° 0 mm 2 mps 628 mmHg 39%
    06:00 +8°C° 0 mm 2 mps 628 mmHg 38%
    07:00 +11°C° 0 mm 1 mps 629 mmHg 36%
    08:00 +13°C° 0 mm 1 mps 630 mmHg 33%
    09:00 +15°C° 0 mm 1 mps 631 mmHg 31%
    10:00 +16°C° 0 mm 1 mps 631 mmHg 31%
    11:00 +18°C° 0 mm 1 mps 631 mmHg 31%
    12:00 +18°C° 0 mm 2 mps 631 mmHg 31%
    13:00 +18°C° 0 mm 2 mps 631 mmHg 33%
    14:00 +18°C° 0 mm 2 mps 631 mmHg 35%
    15:00 +18°C° 0 mm 2 mps 630 mmHg 36%
    16:00 +16°C° 0 mm 1 mps 630 mmHg 43%
    17:00 +14°C° 0 mm 1 mps 629 mmHg 50%
    18:00 +12°C° 0 mm 1 mps 628 mmHg 57%
    19:00 +12°C° 0 mm 1 mps 628 mmHg 54%
    20:00 +10°C° 0 mm 2 mps 628 mmHg 51%
    21:00 +10°C° 0 mm 2 mps 628 mmHg 48%
    22:00 +10°C° 0 mm 2 mps 628 mmHg 47%
    23:00 +10°C° 0 mm 2 mps 627 mmHg 45%

    18 October, Friday

    Time Temperature Precipitation Wind Pressure Humidity
    00:00 +9°C° 0 mm 2 mps 627 mmHg 44%
    01:00 +9°C° 0 mm 2 mps 627 mmHg 45%
    02:00 +9°C° 0 mm 2 mps 626 mmHg 45%
    03:00 +9°C° 0 mm 2 mps 626 mmHg 46%
    04:00 +9°C° 0 mm 2 mps 626 mmHg 47%
    05:00 +9°C° 0 mm 2 mps 626 mmHg 49%
    06:00 +9°C° 0 mm 2 mps 626 mmHg 50%
    07:00 +12°C° 0 mm 1 mps 627 mmHg 46%
    08:00 +14°C° 0 mm 1 mps 628 mmHg 41%
    09:00 +15°C° 0 mm 0 mps 629 mmHg 37%
    10:00 +18°C° 0 mm 1 mps 629 mmHg 35%
    11:00 +19°C° 0 mm 1 mps 629 mmHg 34%
    12:00 +19°C° 0 mm 2 mps 629 mmHg 32%
    13:00 +19°C° 0 mm 2 mps 629 mmHg 33%
    14:00 +19°C° 0 mm 2 mps 628 mmHg 34%
    15:00 +19°C° 0 mm 2 mps 628 mmHg 35%
    16:00 +18°C° 0 mm 1 mps 627 mmHg 42%
    17:00 +14°C° 0 mm 1 mps 627 mmHg 49%
    18:00 +11°C° 0 mm 0 mps 626 mmHg 55%
    19:00 +11°C° 0 mm 0 mps 626 mmHg 55%
    20:00 +12°C° 0 mm 1 mps 626 mmHg 55%
    21:00 +12°C° 0 mm 1 mps 627 mmHg 54%
    22:00 +11°C° 0 mm 1 mps 626 mmHg 54%
    23:00 +11°C° 0 mm 1 mps 626 mmHg 54%

    19 October, Saturday

    Time Temperature Precipitation Wind Pressure Humidity
    00:00 +10°C° 0 mm 0 mps 626 mmHg 54%
    01:00 +9°C° 0 mm 0 mps 626 mmHg 55%
    02:00 +9°C° 0 mm 0 mps 626 mmHg 55%
    03:00 +9°C° 0 mm 0 mps 626 mmHg 55%
    04:00 +9°C° 0 mm 0 mps 627 mmHg 56%
    05:00 +8°C° 0 mm 0 mps 627 mmHg 56%
    06:00 +9°C° 0 mm 1 mps 627 mmHg 56%
    07:00 +10°C° 0.1 mm 1 mps 628 mmHg 57%
    08:00 +12°C° 0.1 mm 1 mps 628 mmHg 57%
    09:00 +13°C° 0.1 mm 1 mps 629 mmHg 57%
    10:00 +13°C° 0.4 mm 1 mps 629 mmHg 58%
    11:00 +14°C° 0.4 mm 2 mps 630 mmHg 59%
    12:00 +14°C° 0.4 mm 2 mps 630 mmHg 60%
    13:00 +14°C° 0.1 mm 2 mps 630 mmHg 60%
    14:00 +14°C° 0.1 mm 2 mps 630 mmHg 61%
    15:00 +14°C° 0.1 mm 2 mps 630 mmHg 61%
    16:00 +13°C° 0 mm 1 mps 629 mmHg 68%
    17:00 +12°C° 0 mm 1 mps 629 mmHg 75%
    18:00 +11°C° 0 mm 1 mps 629 mmHg 82%
    19:00 +11°C° 0 mm 1 mps 629 mmHg 83%
    20:00 +10°C° 0 mm 1 mps 629 mmHg 84%
    21:00 +10°C° 0 mm 1 mps 629 mmHg 85%
    22:00 +10°C° 0.1 mm 1 mps 629 mmHg 85%
    23:00 +10°C° 0.1 mm 1 mps 629 mmHg 86%
    Show more